Find Starlink 38248

NORAD ID: 100435 Int'l Des: 2026-193 Owner: SPXS Country: US Constellation: starlink operational

Aktuelle Ansicht

3D-Globus wird geladen...

About Starlink 38248

Starlink 38248 (NORAD 100435) is a starlink constellation satellite launched Aug 22, 2026 by SPXS of US. with a mass of 575.00 kg.

Nächste Überflüge

Passes for default location (London). Set your location on the main map for personalized predictions.

Höhenverlauf

Loading altitude history...

Zweizeiliger Elementsatz

1 A0435U 26193C 26262.90359190 .00015796 00000-0 26698-3 0 9999
2 A0435 70.0001 76.3017 0003271 271.5202 88.5610 15.51664658 5592
Epoch: 19. Sept. 2026 • Age: 17 hours

Aktueller Status

Höhe 417.5 km
Apogäum / Perigäum N/A
Geschwindigkeit 7.66 km/s
Subsatellitenpunkt -17.73°S, 151.14°W
Startdatum 22. Aug. 2026
Alter 29 days
Typ internet

Technische Details

Klassifizierung Payload
Masse 575.00 kg
Trockenmasse 530.00 kg
Länge 0.30 m
Spannweite 29.00 m
Form ? Box + pan
Hersteller SPXS
Bus-Typ Starlink V2MO
Phasenstatus In Orbit
Besitzer/Staat SPXS/US

Most Searched